Weather History for KERV - March, 2014

Change the Weather History Date:

Sunday, March 30, 2014

  Actual Average (KHDO) Record (KHDO)
Temperature  
Mean Temperature 58 °F -  
Max Temperature 79 °F 73 °F 89 °F (1998)
Min Temperature 38 °F 51 °F 28 °F (2003)
Degree Days  
Heating Degree Days 6    
Growing Degree Days 8 (Base 50)    
Moisture  
Dew Point 40 °F    
Average Humidity 51    
Maximum Humidity 84    
Minimum Humidity 24    
Precipitation  
Precipitation 0.00 in - - ()
Sea Level Pressure  
Sea Level Pressure 30.13 in    
Wind  
Wind Speed 7 mph (SSE)    
Max Wind Speed 23 mph    
Max Gust Speed 32 mph    
Visibility 10 miles    
Events      
Averages and records for this station are not official NWS values.
T = Trace of Precipitation, MM = Missing Value Source: NWS Daily Summary

Daily Weather History Graph

Daily Weather History Graph

Search for Another Location

Airport or City:

Trip Planner

Search our weather history database for the weather conditions in past years. The results will help you decide how hot, cold, wet, or windy it might be!

Date:

Astronomy

Mar. 30, 2014 Rise Set
Actual Time 7:28 AM CDT 7:53 PM CDT
Civil Twilight 7:04 AM CDT 8:17 PM CDT
Nautical Twilight 6:35 AM CDT 8:46 PM CDT
Astronomical Twilight 6:07 AM CDT 9:14 PM CDT
Moon 7:14 AM CDT (3/30) 8:05 PM CDT (3/30)
Length of Visible Light 13h 13m
Length of Day
12h 25m
Waning Crescent, 0% of the Moon is Illuminated
Mar 30
Waning Crescent
Mar 30
New
Apr 7
First Quarter
Apr 15
Full
Apr 22
Last Quarter

Hourly Weather History & Observations

Time (CDT) Temp. Dew Point Humidity Pressure Visibility Wind Dir Wind Speed Gust Speed Precip Events Conditions
12:15 AM 53.6 °F 30.2 °F 41% 30.22 in 10.0 mi Calm Calm - N/A   Clear
12:35 AM 51.1 °F 30.7 °F 46% 30.22 in 10.0 mi Calm Calm - N/A   Clear
1:15 AM 49.8 °F 32.5 °F 51% 30.23 in 10.0 mi Calm Calm - N/A   Clear
1:35 AM 46.8 °F 35.4 °F 65% 30.23 in 10.0 mi Calm Calm - N/A   Clear
1:55 AM 47.1 °F 32.7 °F 57% 30.22 in 10.0 mi Calm Calm - N/A   Clear
2:15 AM 46.4 °F 32.2 °F 58% 30.22 in 10.0 mi Calm Calm - N/A   Clear
2:35 AM 44.6 °F 32.4 °F 62% 30.22 in 10.0 mi Calm Calm - N/A   Clear
2:55 AM 43.7 °F 36.5 °F 76% 30.21 in 10.0 mi Calm Calm - N/A   Clear
3:15 AM 44.2 °F 35.1 °F 70% 30.21 in 10.0 mi Calm Calm - N/A   Clear
3:35 AM 44.6 °F 33.3 °F 64% 30.20 in 10.0 mi Calm Calm - N/A   Clear
3:55 AM 44.1 °F 33.3 °F 66% 30.20 in 10.0 mi Calm Calm - N/A   Clear
4:15 AM 42.1 °F 36.3 °F 80% 30.20 in 10.0 mi Calm Calm - N/A   Clear
4:35 AM 42.3 °F 34.5 °F 74% 30.20 in 10.0 mi Calm Calm - N/A   Clear
4:55 AM 41.2 °F 33.6 °F 74% 30.19 in 10.0 mi Calm Calm - N/A   Clear
5:15 AM 41.0 °F 35.2 °F 80% 30.19 in 10.0 mi Calm Calm - N/A   Clear
5:35 AM 39.0 °F 34.7 °F 84% 30.19 in 10.0 mi Calm Calm - N/A   Clear
5:55 AM 41.0 °F 33.8 °F 76% 30.19 in 10.0 mi Calm Calm - N/A   Clear
6:15 AM 38.5 °F 33.1 °F 81% 30.20 in 10.0 mi Calm Calm - N/A   Clear
6:35 AM 39.2 °F 33.3 °F 79% 30.20 in 10.0 mi Calm Calm - N/A   Clear
6:55 AM 38.5 °F 33.4 °F 82% 30.20 in 10.0 mi Calm Calm - N/A   Clear
7:15 AM 39.6 °F 33.8 °F 80% 30.20 in 10.0 mi Calm Calm - N/A   Clear
7:35 AM 38.7 °F 33.4 °F 81% 30.20 in 10.0 mi Calm Calm - N/A   Clear
7:55 AM 38.5 °F 32.9 °F 80% 30.20 in 10.0 mi Calm Calm - N/A   Clear
8:15 AM 38.8 °F 33.6 °F 82% 30.21 in 10.0 mi Calm Calm - N/A   Clear
8:35 AM 41.9 °F 36.1 °F 80% 30.21 in 10.0 mi Calm Calm - N/A   Clear
8:55 AM 44.8 °F 37.2 °F 75% 30.22 in 10.0 mi Calm Calm - N/A   Clear
9:15 AM 50.7 °F 38.8 °F 64% 30.22 in 10.0 mi Calm Calm - N/A   Clear
9:35 AM 56.3 °F 38.3 °F 51% 30.21 in 10.0 mi SE 4.6 mph - N/A   Clear
9:55 AM 61.2 °F 38.3 °F 43% 30.21 in 10.0 mi SE 9.2 mph - N/A   Clear
10:15 AM 63.9 °F 38.5 °F 39% 30.22 in 10.0 mi SSE 12.7 mph 24.2 mph N/A   Clear
10:35 AM 65.5 °F 39.6 °F 39% 30.21 in 10.0 mi SSE 17.3 mph 25.3 mph N/A   Clear
10:55 AM 66.2 °F 40.5 °F 39% 30.21 in 10.0 mi South 20.7 mph 27.6 mph N/A   Clear
11:15 AM 68.9 °F 40.3 °F 35% 30.20 in 10.0 mi SSE 18.4 mph 23.0 mph N/A   Clear
11:35 AM 68.9 °F 40.3 °F 35% 30.20 in 10.0 mi SSE 16.1 mph 26.5 mph N/A   Clear
11:55 AM 71.6 °F 41.0 °F 33% 30.19 in 10.0 mi South 18.4 mph - N/A   Clear
12:15 PM 71.6 °F 39.4 °F 31% 30.18 in 10.0 mi SSE 18.4 mph 25.3 mph N/A   Clear
12:35 PM 71.6 °F 40.3 °F 32% 30.17 in 10.0 mi SSE 15.0 mph - N/A   Clear
12:55 PM 72.1 °F 40.3 °F 32% 30.16 in 10.0 mi South 18.4 mph 23.0 mph N/A   Clear
1:15 PM 72.5 °F 41.4 °F 32% 30.15 in 10.0 mi SSE 18.4 mph 27.6 mph N/A   Clear
1:35 PM 73.9 °F 41.9 °F 32% 30.14 in 10.0 mi South 16.1 mph 23.0 mph N/A   Clear
1:55 PM 76.5 °F 41.2 °F 28% 30.12 in 10.0 mi SE 15.0 mph 25.3 mph N/A   Clear
2:15 PM 76.5 °F 36.9 °F 24% 30.11 in 10.0 mi SSE 19.6 mph 24.2 mph N/A   Clear
2:35 PM 76.8 °F 37.6 °F 24% 30.10 in 10.0 mi South 19.6 mph 25.3 mph N/A   Clear
2:55 PM 76.5 °F 39.0 °F 26% 30.08 in 10.0 mi SSE 17.3 mph 27.6 mph N/A   Clear
3:15 PM 78.8 °F 41.9 °F 27% 30.07 in 10.0 mi SSE 18.4 mph 23.0 mph N/A   Clear
3:35 PM 77.7 °F 40.1 °F 26% 30.06 in 10.0 mi SSE 17.3 mph 26.5 mph N/A   Clear
3:55 PM 79.0 °F 40.6 °F 25% 30.05 in 10.0 mi SSE 23.0 mph 32.2 mph N/A   Clear
4:15 PM 79.0 °F 40.5 °F 25% 30.04 in 10.0 mi SSE 18.4 mph 26.5 mph N/A   Clear
4:35 PM 78.6 °F 42.6 °F 28% 30.03 in 10.0 mi SSE 18.4 mph 27.6 mph N/A   Clear
4:55 PM 79.0 °F 42.8 °F 28% 30.01 in 10.0 mi SSE 19.6 mph 26.5 mph N/A   Clear
5:15 PM 79.0 °F 41.2 °F 26% 30.01 in 10.0 mi South 18.4 mph 28.8 mph N/A   Clear
5:35 PM 78.3 °F 42.6 °F 28% 30.00 in 10.0 mi SSE 21.9 mph 26.5 mph N/A   Clear
5:55 PM 77.7 °F 41.7 °F 28% 29.99 in 10.0 mi South 19.6 mph 28.8 mph N/A   Clear
6:15 PM 76.5 °F 41.9 °F 29% 29.99 in 10.0 mi SSE 20.7 mph 31.1 mph N/A   Clear
6:35 PM 76.5 °F 43.3 °F 31% 29.99 in 10.0 mi SSE 18.4 mph 27.6 mph N/A   Clear
6:55 PM 76.5 °F 46.2 °F 34% 29.99 in 10.0 mi SE 19.6 mph 26.5 mph N/A   Clear
7:15 PM 73.9 °F 47.5 °F 39% 29.99 in 10.0 mi SSE 16.1 mph 27.6 mph N/A   Clear
7:35 PM 72.7 °F 47.7 °F 41% 30.00 in 10.0 mi SSE 17.3 mph 26.5 mph N/A   Clear
7:55 PM 71.6 °F 47.8 °F 43% 29.99 in 10.0 mi SE 17.3 mph - N/A   Clear
8:15 PM 71.6 °F 50.0 °F 46% 29.99 in 10.0 mi SE 19.6 mph - N/A   Clear
8:35 PM 68.9 °F 49.1 °F 49% 30.00 in 10.0 mi SE 16.1 mph 23.0 mph N/A   Clear
8:55 PM 68.9 °F 48.6 °F 48% 30.01 in 10.0 mi SE 17.3 mph 23.0 mph N/A   Clear
9:15 PM 67.3 °F 46.9 °F 48% 30.01 in 10.0 mi SE 20.7 mph 25.3 mph N/A   Clear
9:35 PM 66.2 °F 47.8 °F 52% 30.02 in 10.0 mi SE 20.7 mph 27.6 mph N/A   Clear
9:55 PM 64.6 °F 48.6 °F 56% 30.02 in 10.0 mi SE 18.4 mph 25.3 mph N/A   Clear
10:15 PM 63.7 °F 48.4 °F 57% 30.03 in 10.0 mi SSE 15.0 mph 28.8 mph N/A   Clear
10:35 PM 62.6 °F 48.6 °F 60% 30.03 in 10.0 mi SE 15.0 mph 25.3 mph N/A   Clear
10:55 PM 61.5 °F 48.2 °F 62% 30.03 in 10.0 mi SSE 13.8 mph 23.0 mph N/A   Clear
11:15 PM 61.2 °F 49.6 °F 66% 30.03 in 10.0 mi SSE 19.6 mph 24.2 mph N/A   Clear
11:35 PM 61.2 °F 51.6 °F 71% 30.03 in 10.0 mi SSE 12.7 mph 23.0 mph N/A   Clear
11:55 PM 59.4 °F 51.8 °F 76% 30.03 in 10.0 mi SSE 16.1 mph 20.7 mph N/A   Scattered Clouds